SCP
0 0 0 0 0 0 0 0 0 0 0 0 0 0 0 0 0 0 0 0 0 0 0 0 0 0 0 0 0 0 0 0 0 0 0 0 0 0 0 0 0 0 -0 0 0 0 0 0 0 0 0 -0 -0 0
0 0 0 0 0 0 0 0 0 0 0 0 0 0 0 0 0 0 0 0 0 0 0 0 0 0 0 0 0 0 0 0 -0 0 0 0 0 0 0 0 0 0 0 0 -0 0 0 0 0 -0 0 0 0 0
0 0 0 0 0 0 0 0 0 0 0 0 0 0 0 0 0 0 0 0 0 0 0 0 0 0 0 0 0 0 0 0 0 -0 0 0 0 0 0 0 0 0 -0 -0 0 0 0 0 0 0 0 0 0 -0
0 0 0 0 0 0 0 0 0 0 0 0 0 0 0 0 0 0 0 0 0 0 0 0 0 0 0 0 0 0 0 0 0 0 -0 0 0 -0 0 0 0 0 0 0 0 0 0 0 0 0 0 0 0 0
0 0 0 0 0 0 0 0 0 0 0 0 0 0 0 0 0 0 0 0 0 0 0 0 0 0 0 0 0 0 0 0 0 0 0 0 0 0 0 0 0 0 0 0 0 0 0 0 0 -0 0 0 0 -0
0 0 0 0 0 0 0 0 0 0 0 0 0 0 0 0 0 0 0 0 0 0 0 0 0 0 0 0 0 0 0 0 0 0 0 0 -0 -0 0 0 0 0 0 0 0 0 0 0 0 0 0 0 0 0
0 0 0 0 0 0 0 0 0 0 0 0 0 0 0 0 0 0 0 0 0 0 0 0 0 0 0 0 0 0 0 0 0 -0 0 0 0 0 0 0 0 0 -0 0 0 0 0 0 0 0 0 0 0 0
0 0 0 0 0 0 0 0 0 0 0 0 0 0 0 0 0 0 0 0 0 0 0 0 0 0 0 0 -0 0 0 0 0 -0 0 0 0 0 0 0 0 0 0 0 0 0 0 0 0 0 0 0 0 0
0 0 0 0 0 0 0 0 0 0 0 0 0 0 0 0 0 0 0 0 0 0 0 0 0 0 0 0 0 0 0 0 0 0 0 0 0 0 0 0 0 -0 -0 0 0 -0 0 0 0 0 0 0 0 0
0 -0 0 0 0 0 0 0 0 0 0 0 0 0 0 0 0 0 0 0 0 0 0 0 0 0 0 0 0 0 0 0 -0 0 0 0 0 0 0 0 0 0 0 -0 -0 0 0 0 -0 -0 0 0 0 0
0 0 0 0 0 0 0 0 0 0 0 0 0 0 0 0 0 0 0 0 0 0 0 0 0 0 0 0 0 0 0 0 -0 0 0 0 0 0 0 0 0 0 0 -0 0 0 0 0 0 0 0 0 0 0
0 0 0 0 0 0 0 0 0 0 0 0 0 0 0 0 0 0 0 0 0 0 0 0 0 0 0 0 0 0 0 0 -0 0 0 0 0 0 0 0 0 0 0 0 0 0 0 0 0 0 0 0 0 0
0 0 0 0 0 0 0 0 0 0 0 0 0 0 0 0 0 0 0 0 0 0 0 0 0 0 0 0 0 0 0 0 0 -0 -0 0 0 0 0 0 0 0 0 0 0 0 0 0 0 0 0 0 0 0
0 0 0 0 0 0 0 0 0 0 0 0 0 0 0 0 0 0 0 0 0 0 0 0 0 0 0 0 0 0 0 0 0 0 0 0 0 0 0 0 0 0 0 0 0 0 0 0 0 0 0 0 0 0
0 0 0 0 0 0 0 0 0 0 0 0 0 0 0 0 0 0 0 0 0 0 0 0 0 0 0 0 0 0 0 0 0 0 -0 0 -0 -0 0 0 0 0 0 0 0 0 0 0 0 0 0 0 0 0
0 0 0 0 0 0 0 0 0 0 0 0 0 0 0 0 0 0 0 0 0 0 0 0 0 0 0 0 0 0 0 0 0 0 -0 0 0 -0 0 0 0 0 0 0 0 0 0 0 0 0 0 0 0 0
0 0 0 0 0 0 0 0 0 0 0 0 0 0 0 0 0 0 0 0 0 0 0 0 0 0 0 0 0 0 0 0 0 -0 0 0 -0 -0 0 0 0 0 -0 0 0 0 0 0 0 0 0 0 0 0
0 0 0 0 0 0 0 0 0 0 0 0 0 0 0 0 0 0 0 0 0 0 0 0 0 0 0 0 -0 0 0 0 -0 0 0 -0 -0 -0 0 0 -0 -0 -0 0 0 0 0 0 0 0 0 0 0 0
0 0 0 0 0 0 0 0 0 0 0 0 0 0 0 0 0 0 0 0 0 0 0 0 0 0 0 0 0 0 0 0 -0 0 0 0 -0 -0 -0 -0 -0 -0 -0 -0 -0 0 0 0 0 0 0 0 0 0
0 0 0 0 0 0 0 0 0 0 0 0 0 0 0 0 0 0 0 0 0 0 0 0 0 0 0 0 0 0 0 0 0 0 0 0 0 -0 -0 -0 -0 0 0 0 0 0 0 0 0 0 0 0 0 0
0 0 0 0 0 0 0 0 0 0 0 0 0 0 0 0 0 0 0 0 0 0 0 0 0 0 0 0 0 0 0 0 0 0 0 0 0 -0 0 0 -0 0 0 0 0 0 0 0 0 0 0 0 0 0
0 0 0 0 0 0 0 0 0 0 0 0 0 0 0 0 0 0 0 0 0 0 0 0 0 0 0 0 0 0 0 0 0 0 -0 -0 0 -0 0 0 0 0 0 0 0 0 0 0 -0 -0 0 0 0 0
0 0 0 0 0 0 0 0 0 0 0 0 0 0 0 0 0 0 0 0 0 0 0 0 0 0 0 0 0 0 0 0 0 0 0 0 0 0 0 0 0 0 0 0 0 0 0 -0 0 0 0 0 0 0
0 0 0 0 0 0 0 0 0 0 0 0 0 0 0 0 0 0 0 0 0 0 0 0 0 0 0 0 0 0 0 0 0 0 0 0 0 0 0 0 0 0 -0 -0 -0 -0 -0 -0 -0 0 0 -0 -0 -0
0 0 0 0 0 0 0 0 0 0 0 0 0 0 0 0 0 0 0 0 0 0 0 0 0 0 0 0 0 0 0 0 0 0 0 0 0 0 0 0 -0 0 -0 -0 -0 -0 -0 -0 -0 -0 -0 -0 -0 -0
0 0 0 0 0 0 0 0 0 0 0 0 0 0 0 0 0 0 0 0 0 0 0 0 0 0 0 0 0 0 0 0 0 0 0 0 0 0 0 0 -0 -0 0 -0 -0 -0 0 -0 0 0 0 -0 -0 -0
0 0 0 0 0 0 0 0 0 0 0 0 0 0 0 0 0 0 0 0 0 0 0 0 0 0 0 0 0 0 0 0 0 0 0 0 0 0 0 -0 -0 -0 0 -0 0 -0 -0 -0 -0 -0 0 0 -0 -0
0 0 0 0 0 0 0 0 0 0 0 0 0 0 0 0 0 0 0 0 0 0 0 -0 0 0 0 0 0 0 0 0 0 0 0 0 0 0 -0 -0 -0 -0 0 0 0 0 -0 -0 -0 -0 -0 0 0 0
0 0 0 0 0 0 0 0 0 0 0 0 0 0 0 0 -0 -0 0 -0 -0 0 0 0 0 0 0 0 0 0 0 0 0 0 0 -0 -0 -0 -0 -0 -0 0 0 0 0 0 -0 -0 -0 -0 -0 0 0 0
0 0 0 0 0 0 0 0 0 0 0 0 0 0 0 0 0 0 0 0 0 0 0 0 0 0 0 0 0 0 0 0 0 0 -0 -0 -0 -0 -0 -0 -0 -0 0 0 0 0 0 0 0 0 0 0 0 0
0 0 0 0 0 0 0 0 0 0 0 0 0 0 0 0 0 0 0 0 0 0 0 0 0 0 0 0 0 0 0 0 0 0 -0 -0 -0 -0 0 -0 0 0 -0 0 -0 0 0 0 0 0 0 0 0 0
0 0 0 0 0 0 0 0 0 0 0 0 0 0 0 0 0 0 0 0 0 0 0 0 0 0 0 0 0 0 0 0 0 0 0 0 -0 -0 -0 0 -0 -0 0 0 0 0 0 -0 -0 0 0 0 0 0
0 0 0 0 0 0 0 0 0 -0 0 0 0 0 0 0 0 0 0 0 0 0 0 0 0 0 0 0 0 0 0 0 0 0 0 0 0 0 0 0 0 0 0 0 0 0 -0 -0 0 0 0 0 0 0
Wind_Speed_500mb
53 52 55 56 55 56 56 54 50 48 47 46 45 44 42 38 31 30 22 8 18 16 55 36 20 18 16 9 4 22 23 5 9 8 6 7 6 8 7 6 3 4 7 4 3 4 3 26 25 6 10 37 76 63
53 56 55 56 56 57 56 52 49 45 43 43 41 40 41 35 32 25 27 25 30 29 57 78 64 56 64 41 44 12 9 10 8 5 3 5 5 7 10 6 7 4 3 2 7 5 12 30 21 33 29 25 51 63
58 59 57 57 57 58 56 52 47 42 39 38 37 37 37 38 31 24 32 33 31 22 50 19 6 5 48 31 27 13 9 6 9 7 7 3 5 5 6 6 9 9 2 3 3 7 10 19 53 34 7 14 46 62
63 65 60 59 57 55 53 50 45 41 37 34 33 34 36 39 36 32 33 33 26 17 12 19 39 31 10 21 36 47 45 32 16 5 4 4 5 5 4 9 7 10 14 6 7 6 11 15 51 15 21 30 37 41
72 68 61 58 55 52 50 46 42 39 35 31 31 34 36 40 38 31 24 8 7 5 10 34 42 13 25 26 22 36 41 50 27 6 5 3 7 7 6 5 7 6 8 6 5 13 12 16 32 11 27 38 53 59
67 66 57 56 52 49 45 43 39 35 32 30 30 32 34 36 33 26 2 3 8 14 11 9 26 23 44 15 8 22 32 40 20 7 6 7 10 5 5 5 6 16 34 20 13 36 35 27 8 13 31 35 43 59
70 59 52 51 49 47 43 39 37 32 29 28 29 28 30 29 27 15 8 6 14 20 9 13 18 17 29 14 10 6 17 23 18 11 11 8 7 10 5 7 8 22 29 29 24 34 12 6 10 36 44 45 47 56
58 48 47 47 46 43 40 37 33 26 25 23 23 25 28 24 14 9 9 4 11 20 8 6 8 16 15 11 9 6 6 21 16 9 5 6 6 9 8 13 25 20 24 21 32 36 20 16 42 51 56 58 63 68
39 42 44 42 41 38 36 32 25 21 22 20 21 23 24 3 3 7 15 22 17 12 6 6 5 7 17 10 11 7 6 4 4 2 5 6 4 9 12 20 24 21 20 38 41 16 29 43 44 45 61 64 69 69
33 40 42 41 37 32 30 26 17 20 16 16 17 6 4 5 9 20 5 4 5 8 10 9 9 7 13 8 8 6 4 4 4 7 6 6 6 33 22 13 21 31 35 32 14 17 41 41 47 45 53 58 68 72
35 43 43 39 33 29 26 15 17 17 8 8 5 6 7 10 11 6 6 8 10 7 11 13 23 10 11 6 7 7 4 3 4 5 4 4 5 4 5 12 21 29 36 24 27 30 34 49 55 63 61 66 69 70
37 41 40 38 31 27 22 18 19 13 11 8 9 17 10 5 7 5 7 8 7 8 10 9 16 19 13 13 8 8 5 4 7 7 4 6 4 4 4 10 15 6 14 41 43 48 55 64 63 62 63 72 68 64
34 35 35 31 27 24 19 24 20 16 17 9 4 4 5 4 1 9 10 7 4 9 15 9 9 8 8 12 10 2 5 9 10 4 6 6 7 11 15 14 22 29 40 50 57 58 59 62 62 62 59 61 65 61
28 28 29 27 27 24 27 24 21 14 12 10 9 7 9 8 9 9 7 4 7 5 15 18 11 6 7 3 5 6 7 4 5 4 8 3 20 20 20 34 42 46 47 51 55 59 60 59 61 58 56 54 53 47
26 25 22 28 29 31 30 27 20 18 12 9 9 9 12 21 14 8 14 6 7 12 13 12 11 6 6 5 6 6 5 7 5 6 6 7 28 28 29 43 49 47 42 49 53 57 59 55 49 46 38 35 41 49
18 18 26 29 30 35 33 19 18 21 9 12 15 9 17 2 13 11 5 8 8 6 12 6 5 3 8 6 4 6 10 4 6 8 15 21 29 29 30 28 27 33 36 37 37 41 42 41 43 46 43 38 34 30
20 24 13 34 34 42 27 19 16 12 12 11 14 26 32 24 19 26 23 15 14 12 3 2 5 8 7 6 4 8 5 5 22 18 16 24 31 27 32 32 28 34 37 39 40 41 44 46 46 46 44 38 31 27
30 19 20 31 49 30 22 19 8 12 15 22 13 18 25 26 21 26 32 29 21 10 9 7 4 4 5 6 3 8 22 25 21 12 32 39 42 43 33 24 28 29 35 39 44 47 52 52 47 44 40 36 34 32
34 26 29 49 47 23 14 15 14 11 24 24 27 41 43 38 40 38 38 31 34 29 9 4 8 7 6 8 16 33 26 18 14 17 39 41 37 37 35 31 30 32 32 37 43 50 50 45 43 41 38 35 35 35
35 36 40 33 34 15 8 9 14 13 11 9 17 21 20 27 38 41 40 40 34 15 10 9 9 11 18 18 26 25 21 19 18 29 36 43 38 33 41 38 36 32 32 34 35 38 40 41 38 36 32 30 31 31
42 33 37 46 32 14 6 8 14 11 12 14 18 16 14 22 32 36 40 38 23 20 12 28 29 35 30 34 30 31 28 19 16 31 45 45 42 44 46 42 36 43 42 40 44 43 42 40 38 35 30 26 25 31
36 50 45 40 11 10 12 17 12 8 10 16 20 17 13 9 13 14 14 24 17 38 45 49 52 48 44 43 34 25 24 18 26 27 34 32 45 60 60 41 43 44 41 40 42 41 38 36 37 34 31 35 38 34
49 43 18 18 11 12 13 14 12 10 6 7 7 7 7 8 9 6 7 11 16 29 36 41 47 47 43 39 35 29 29 23 33 31 41 46 49 49 53 53 43 43 41 39 38 36 37 39 37 39 39 38 37 35
38 21 12 17 17 7 8 10 12 10 10 6 5 7 7 9 5 4 6 8 9 9 13 23 31 31 30 29 31 32 20 13 26 32 48 55 57 56 58 55 47 43 36 41 39 39 44 44 42 40 39 38 37 35
13 14 12 9 12 8 7 7 10 8 8 9 7 8 7 11 4 5 5 6 8 5 8 19 26 28 27 23 26 27 19 22 30 36 39 51 50 57 62 47 55 44 41 44 44 41 45 44 42 41 41 42 39 38
6 16 17 21 12 10 8 6 10 11 8 10 10 9 7 4 5 7 2 3 3 7 5 3 5 14 20 27 25 23 26 27 30 33 35 41 43 52 59 58 65 50 36 44 48 45 46 47 45 43 45 43 41 39
8 10 17 20 13 13 9 16 14 8 8 9 6 7 6 4 6 2 2 2 7 10 12 11 7 6 9 15 18 21 21 36 35 23 21 35 39 47 52 77 68 46 24 45 52 46 48 50 46 44 40 40 37 31
14 9 10 19 17 21 6 3 7 6 6 5 7 2 2 3 3 3 5 15 19 21 20 23 23 13 10 15 20 26 29 37 33 25 24 27 45 34 58 53 41 30 18 35 43 39 41 42 42 40 42 38 37 35
12 12 13 7 10 14 18 11 11 9 15 17 6 4 4 4 3 4 11 21 25 14 14 13 22 21 12 16 18 21 29 34 42 43 43 44 45 48 57 50 41 33 25 29 48 41 36 34 33 35 37 36 34 35
11 18 9 11 7 8 11 14 6 6 8 4 1 4 5 4 5 6 14 14 10 9 9 11 16 21 20 25 31 33 36 39 39 39 53 52 50 50 50 51 39 30 32 34 37 48 48 38 37 39 40 40 42 42
13 23 14 11 8 21 23 13 10 9 6 11 15 15 10 6 6 7 11 13 9 7 11 17 16 21 19 31 35 31 36 37 38 30 39 47 49 49 46 40 36 39 40 42 40 44 51 47 46 44 45 45 45 47
25 18 17 10 11 20 16 9 9 10 13 16 10 11 13 8 6 6 9 8 2 5 7 13 28 34 30 34 37 33 34 34 36 36 38 41 48 51 41 38 42 45 43 46 47 42 48 49 47 47 45 43 44 47
34 18 16 3 3 5 12 9 5 5 10 12 14 20 16 11 6 6 6 3 6 7 9 21 16 27 35 39 41 53 41 31 29 18 39 46 50 48 46 41 40 47 45 43 40 44 52 51 49 45 41 38 39 46
Wind_Direction_500mb
284 294 301 305 306 310 314 316 318 320 323 326 331 336 340 339 336 325 331 298 308 272 286 283 279 254 250 246 287 314 333 7 334 357 354 334 322 355 319 345 332 209 148 178 109 328 271 358 330 215 309 158 167 170
288 295 298 300 302 306 310 311 311 313 316 319 329 339 344 341 337 325 321 317 311 282 279 297 295 276 261 284 263 258 252 300 287 310 0 305 329 320 333 306 344 68 68 220 192 240 293 352 321 335 300 177 162 153
285 293 296 296 298 303 305 306 305 306 308 313 320 327 331 335 338 326 310 312 317 295 306 316 5 288 313 301 221 220 240 306 244 247 317 310 296 306 325 349 320 326 238 236 322 235 305 14 14 14 43 144 150 147
280 283 286 288 293 297 300 301 301 300 304 308 313 317 322 328 332 325 316 316 302 283 288 288 319 330 319 219 221 257 270 272 269 304 308 295 292 267 286 279 269 245 334 290 291 28 26 348 5 8 112 139 132 143
275 275 279 283 288 292 295 297 296 296 299 304 307 311 319 324 330 333 324 345 280 267 294 296 330 359 349 338 263 246 241 230 257 273 240 257 275 309 283 294 237 313 357 12 309 355 305 295 350 44 136 151 162 154
273 273 275 280 283 288 291 291 289 290 294 298 301 305 314 320 329 343 61 79 60 19 293 305 319 320 5 3 300 253 235 224 227 234 226 247 250 210 275 269 185 17 356 345 294 314 314 307 343 157 150 155 159 157
261 263 269 275 281 285 285 284 283 286 290 297 296 301 308 314 319 314 272 270 270 297 308 295 306 308 351 339 10 352 228 215 225 247 219 234 245 208 250 228 209 330 329 318 332 320 332 349 175 152 143 144 155 149
253 261 268 274 279 280 281 280 279 282 288 295 297 302 303 311 316 94 49 9 256 261 259 284 274 307 353 324 309 286 240 211 226 233 216 227 244 207 259 255 289 304 312 321 314 328 263 190 152 145 142 150 149 146
255 264 269 273 273 273 275 273 277 271 282 286 296 301 298 165 99 340 304 297 293 229 268 247 280 273 323 317 285 277 240 257 274 256 238 191 202 229 234 265 295 305 306 306 320 298 169 168 158 151 144 150 148 146
261 267 264 264 265 267 266 267 257 264 272 282 292 265 216 136 305 316 273 232 222 208 228 251 258 270 315 326 296 301 251 260 261 224 190 222 256 254 272 277 293 296 295 292 274 172 167 158 162 158 154 159 157 156
266 264 263 261 259 257 254 243 233 261 241 260 250 242 210 265 287 214 228 201 192 223 219 240 235 247 262 195 245 235 254 240 268 260 201 243 263 230 304 309 311 308 297 272 201 196 171 158 144 150 158 160 158 159
255 258 258 258 250 239 239 213 223 243 213 209 272 286 300 211 215 227 218 167 210 227 205 211 258 238 263 225 224 243 247 207 246 149 220 262 266 106 57 17 347 353 122 142 160 155 150 145 147 143 152 156 155 153
257 254 250 248 241 220 210 206 219 237 227 255 243 271 233 215 127 208 203 234 213 204 200 234 282 252 254 235 257 235 260 235 120 224 236 237 149 131 107 104 104 108 119 131 133 139 142 139 145 147 140 140 144 142
267 260 249 243 217 198 195 202 220 236 181 189 198 250 181 217 239 204 191 212 271 242 298 301 277 247 268 258 227 252 244 94 266 250 243 193 160 140 125 123 123 112 115 121 127 133 132 137 134 134 131 130 133 131
255 262 254 220 192 186 190 210 222 215 198 203 202 237 219 226 249 230 276 290 295 301 305 296 281 250 278 276 235 297 254 251 248 306 292 165 160 152 143 140 133 133 133 125 125 125 128 131 134 140 153 157 154 147
252 256 234 188 177 199 189 215 207 187 232 223 225 246 247 269 258 244 216 304 317 302 321 251 274 293 254 238 246 264 312 321 317 324 312 158 160 161 158 157 153 147 146 146 148 151 150 152 148 139 138 142 141 143
224 218 184 183 189 191 181 187 172 217 230 229 242 232 251 274 262 271 279 268 300 291 217 191 249 221 311 246 241 336 297 271 289 315 178 168 164 159 133 129 135 139 140 143 148 147 142 142 139 139 139 140 144 151
209 195 190 193 173 172 187 179 216 239 246 242 235 246 239 243 249 256 270 274 277 227 187 215 282 242 232 304 294 243 262 298 287 238 166 149 150 154 155 154 160 154 152 154 153 152 153 152 154 157 155 153 149 145
188 186 188 202 181 164 172 197 218 258 243 249 262 265 265 267 267 263 266 264 270 265 199 192 237 214 206 234 244 283 288 277 236 192 185 174 175 179 176 167 164 163 163 162 162 161 162 161 160 161 157 157 150 148
188 195 201 189 189 183 201 212 209 253 266 254 253 259 249 258 269 265 265 263 260 218 180 209 223 217 211 264 311 299 303 297 228 179 180 191 183 177 172 163 157 160 164 166 173 174 172 169 165 163 159 160 154 151
195 187 193 199 177 194 258 242 229 243 268 261 273 272 264 261 254 250 247 244 225 201 216 225 237 247 262 286 310 307 290 277 218 198 188 184 188 171 175 170 171 174 169 165 162 161 161 161 160 163 165 159 147 142
181 186 165 177 165 200 253 234 236 284 256 263 280 256 249 256 245 232 224 202 219 229 232 236 246 254 266 278 292 300 286 273 204 206 190 186 162 166 172 171 182 176 173 169 166 166 168 165 166 164 158 148 145 139
179 176 155 170 182 206 255 223 224 225 240 256 262 251 237 238 224 200 232 227 230 232 239 247 249 252 260 270 275 277 280 258 211 198 190 178 176 176 178 173 175 183 176 174 166 163 160 160 160 155 155 153 150 146
166 151 165 183 196 240 237 221 218 234 229 237 253 262 251 227 185 194 242 251 209 215 231 240 243 245 246 246 247 249 251 195 200 192 189 185 184 186 185 179 173 189 177 167 168 166 162 161 164 168 173 175 172 167
138 179 184 197 201 222 237 227 197 216 231 212 226 259 250 183 191 236 225 243 190 206 255 251 237 232 233 235 217 224 231 208 196 188 194 201 197 189 183 178 173 177 186 186 178 179 183 178 181 186 192 198 196 192
177 197 185 193 188 207 216 240 203 205 206 208 235 241 172 163 219 235 230 132 226 236 255 290 150 164 181 201 208 224 233 214 195 191 193 200 203 193 187 178 181 184 192 199 193 189 193 193 193 199 203 206 210 209
192 214 209 210 208 213 242 264 242 231 207 221 229 188 159 210 239 70 34 293 282 275 263 270 275 228 211 207 216 218 226 222 214 210 203 195 193 203 198 174 175 172 179 199 202 201 197 195 199 203 202 201 202 201
218 231 202 204 207 224 227 259 268 232 203 344 319 311 215 231 218 277 321 314 319 301 269 259 242 231 220 227 218 207 207 208 204 204 196 189 178 190 184 175 171 175 197 196 197 202 203 200 199 201 204 200 199 199
222 213 216 237 206 214 210 216 225 256 168 164 153 269 241 209 241 300 305 320 314 290 272 281 216 210 220 224 206 202 200 195 187 181 184 185 191 193 187 186 192 192 200 202 208 212 209 207 206 207 209 212 212 211
225 205 209 197 200 238 229 228 261 193 169 138 252 225 226 220 250 287 325 322 311 266 259 219 212 222 223 211 189 192 184 189 199 203 190 191 188 181 191 192 193 208 210 213 209 213 211 209 213 217 219 220 223 221
192 199 208 228 252 229 243 265 232 212 205 244 238 240 226 218 243 275 330 333 303 260 250 234 242 225 228 191 175 173 179 185 195 190 189 187 187 185 196 205 196 196 206 210 210 212 211 213 217 222 227 232 228 225
195 209 193 204 228 238 224 223 220 224 222 212 211 176 183 205 247 243 286 324 122 102 135 222 232 222 205 194 200 187 180 172 183 191 203 213 205 197 202 205 201 206 214 217 214 216 214 215 213 217 220 228 229 228
203 204 191 120 262 221 208 199 234 251 200 209 214 200 200 206 241 217 224 17 165 112 118 41 165 195 185 182 193 192 179 178 185 191 193 194 196 199 206 201 204 203 200 204 209 215 211 212 211 214 224 225 225 225
Wind_Speed_850mb
53 52 55 56 55 56 56 54 50 48 47 46 45 44 42 38 31 30 22 8 18 16 55 36 20 18 16 9 4 22 23 5 9 8 6 7 6 8 7 6 3 4 7 4 3 4 3 26 25 6 10 37 76 63
53 56 55 56 56 57 56 52 49 45 43 43 41 40 41 35 32 25 27 25 30 29 57 78 64 56 64 41 44 12 9 10 8 5 3 5 5 7 10 6 7 4 3 2 7 5 12 30 21 33 29 25 51 63
58 59 57 57 57 58 56 52 47 42 39 38 37 37 37 38 31 24 32 33 31 22 50 19 6 5 48 31 27 13 9 6 9 7 7 3 5 5 6 6 9 9 2 3 3 7 10 19 53 34 7 14 46 62
63 65 60 59 57 55 53 50 45 41 37 34 33 34 36 39 36 32 33 33 26 17 12 19 39 31 10 21 36 47 45 32 16 5 4 4 5 5 4 9 7 10 14 6 7 6 11 15 51 15 21 30 37 41
72 68 61 58 55 52 50 46 42 39 35 31 31 34 36 40 38 31 24 8 7 5 10 34 42 13 25 26 22 36 41 50 27 6 5 3 7 7 6 5 7 6 8 6 5 13 12 16 32 11 27 38 53 59
67 66 57 56 52 49 45 43 39 35 32 30 30 32 34 36 33 26 2 3 8 14 11 9 26 23 44 15 8 22 32 40 20 7 6 7 10 5 5 5 6 16 34 20 13 36 35 27 8 13 31 35 43 59
70 59 52 51 49 47 43 39 37 32 29 28 29 28 30 29 27 15 8 6 14 20 9 13 18 17 29 14 10 6 17 23 18 11 11 8 7 10 5 7 8 22 29 29 24 34 12 6 10 36 44 45 47 56
58 48 47 47 46 43 40 37 33 26 25 23 23 25 28 24 14 9 9 4 11 20 8 6 8 16 15 11 9 6 6 21 16 9 5 6 6 9 8 13 25 20 24 21 32 36 20 16 42 51 56 58 63 68
39 42 44 42 41 38 36 32 25 21 22 20 21 23 24 3 3 7 15 22 17 12 6 6 5 7 17 10 11 7 6 4 4 2 5 6 4 9 12 20 24 21 20 38 41 16 29 43 44 45 61 64 69 69
33 40 42 41 37 32 30 26 17 20 16 16 17 6 4 5 9 20 5 4 5 8 10 9 9 7 13 8 8 6 4 4 4 7 6 6 6 33 22 13 21 31 35 32 14 17 41 41 47 45 53 58 68 72
35 43 43 39 33 29 26 15 17 17 8 8 5 6 7 10 11 6 6 8 10 7 11 13 23 10 11 6 7 7 4 3 4 5 4 4 5 4 5 12 21 29 36 24 27 30 34 49 55 63 61 66 69 70
37 41 40 38 31 27 22 18 19 13 11 8 9 17 10 5 7 5 7 8 7 8 10 9 16 19 13 13 8 8 5 4 7 7 4 6 4 4 4 10 15 6 14 41 43 48 55 64 63 62 63 72 68 64
34 35 35 31 27 24 19 24 20 16 17 9 4 4 5 4 1 9 10 7 4 9 15 9 9 8 8 12 10 2 5 9 10 4 6 6 7 11 15 14 22 29 40 50 57 58 59 62 62 62 59 61 65 61
28 28 29 27 27 24 27 24 21 14 12 10 9 7 9 8 9 9 7 4 7 5 15 18 11 6 7 3 5 6 7 4 5 4 8 3 20 20 20 34 42 46 47 51 55 59 60 59 61 58 56 54 53 47
26 25 22 28 29 31 30 27 20 18 12 9 9 9 12 21 14 8 14 6 7 12 13 12 11 6 6 5 6 6 5 7 5 6 6 7 28 28 29 43 49 47 42 49 53 57 59 55 49 46 38 35 41 49
18 18 26 29 30 35 33 19 18 21 9 12 15 9 17 2 13 11 5 8 8 6 12 6 5 3 8 6 4 6 10 4 6 8 15 21 29 29 30 28 27 33 36 37 37 41 42 41 43 46 43 38 34 30
20 24 13 34 34 42 27 19 16 12 12 11 14 26 32 24 19 26 23 15 14 12 3 2 5 8 7 6 4 8 5 5 22 18 16 24 31 27 32 32 28 34 37 39 40 41 44 46 46 46 44 38 31 27
30 19 20 31 49 30 22 19 8 12 15 22 13 18 25 26 21 26 32 29 21 10 9 7 4 4 5 6 3 8 22 25 21 12 32 39 42 43 33 24 28 29 35 39 44 47 52 52 47 44 40 36 34 32
34 26 29 49 47 23 14 15 14 11 24 24 27 41 43 38 40 38 38 31 34 29 9 4 8 7 6 8 16 33 26 18 14 17 39 41 37 37 35 31 30 32 32 37 43 50 50 45 43 41 38 35 35 35
35 36 40 33 34 15 8 9 14 13 11 9 17 21 20 27 38 41 40 40 34 15 10 9 9 11 18 18 26 25 21 19 18 29 36 43 38 33 41 38 36 32 32 34 35 38 40 41 38 36 32 30 31 31
42 33 37 46 32 14 6 8 14 11 12 14 18 16 14 22 32 36 40 38 23 20 12 28 29 35 30 34 30 31 28 19 16 31 45 45 42 44 46 42 36 43 42 40 44 43 42 40 38 35 30 26 25 31
36 50 45 40 11 10 12 17 12 8 10 16 20 17 13 9 13 14 14 24 17 38 45 49 52 48 44 43 34 25 24 18 26 27 34 32 45 60 60 41 43 44 41 40 42 41 38 36 37 34 31 35 38 34
49 43 18 18 11 12 13 14 12 10 6 7 7 7 7 8 9 6 7 11 16 29 36 41 47 47 43 39 35 29 29 23 33 31 41 46 49 49 53 53 43 43 41 39 38 36 37 39 37 39 39 38 37 35
38 21 12 17 17 7 8 10 12 10 10 6 5 7 7 9 5 4 6 8 9 9 13 23 31 31 30 29 31 32 20 13 26 32 48 55 57 56 58 55 47 43 36 41 39 39 44 44 42 40 39 38 37 35
13 14 12 9 12 8 7 7 10 8 8 9 7 8 7 11 4 5 5 6 8 5 8 19 26 28 27 23 26 27 19 22 30 36 39 51 50 57 62 47 55 44 41 44 44 41 45 44 42 41 41 42 39 38
6 16 17 21 12 10 8 6 10 11 8 10 10 9 7 4 5 7 2 3 3 7 5 3 5 14 20 27 25 23 26 27 30 33 35 41 43 52 59 58 65 50 36 44 48 45 46 47 45 43 45 43 41 39
8 10 17 20 13 13 9 16 14 8 8 9 6 7 6 4 6 2 2 2 7 10 12 11 7 6 9 15 18 21 21 36 35 23 21 35 39 47 52 77 68 46 24 45 52 46 48 50 46 44 40 40 37 31
14 9 10 19 17 21 6 3 7 6 6 5 7 2 2 3 3 3 5 15 19 21 20 23 23 13 10 15 20 26 29 37 33 25 24 27 45 34 58 53 41 30 18 35 43 39 41 42 42 40 42 38 37 35
12 12 13 7 10 14 18 11 11 9 15 17 6 4 4 4 3 4 11 21 25 14 14 13 22 21 12 16 18 21 29 34 42 43 43 44 45 48 57 50 41 33 25 29 48 41 36 34 33 35 37 36 34 35
11 18 9 11 7 8 11 14 6 6 8 4 1 4 5 4 5 6 14 14 10 9 9 11 16 21 20 25 31 33 36 39 39 39 53 52 50 50 50 51 39 30 32 34 37 48 48 38 37 39 40 40 42 42
13 23 14 11 8 21 23 13 10 9 6 11 15 15 10 6 6 7 11 13 9 7 11 17 16 21 19 31 35 31 36 37 38 30 39 47 49 49 46 40 36 39 40 42 40 44 51 47 46 44 45 45 45 47
25 18 17 10 11 20 16 9 9 10 13 16 10 11 13 8 6 6 9 8 2 5 7 13 28 34 30 34 37 33 34 34 36 36 38 41 48 51 41 38 42 45 43 46 47 42 48 49 47 47 45 43 44 47
34 18 16 3 3 5 12 9 5 5 10 12 14 20 16 11 6 6 6 3 6 7 9 21 16 27 35 39 41 53 41 31 29 18 39 46 50 48 46 41 40 47 45 43 40 44 52 51 49 45 41 38 39 46
Wind_Direction_850mb
284 294 301 305 306 310 314 316 318 320 323 326 331 336 340 339 336 325 331 298 308 272 286 283 279 254 250 246 287 314 333 7 334 357 354 334 322 355 319 345 332 209 148 178 109 328 271 358 330 215 309 158 167 170
288 295 298 300 302 306 310 311 311 313 316 319 329 339 344 341 337 325 321 317 311 282 279 297 295 276 261 284 263 258 252 300 287 310 0 305 329 320 333 306 344 68 68 220 192 240 293 352 321 335 300 177 162 153
285 293 296 296 298 303 305 306 305 306 308 313 320 327 331 335 338 326 310 312 317 295 306 316 5 288 313 301 221 220 240 306 244 247 317 310 296 306 325 349 320 326 238 236 322 235 305 14 14 14 43 144 150 147
280 283 286 288 293 297 300 301 301 300 304 308 313 317 322 328 332 325 316 316 302 283 288 288 319 330 319 219 221 257 270 272 269 304 308 295 292 267 286 279 269 245 334 290 291 28 26 348 5 8 112 139 132 143
275 275 279 283 288 292 295 297 296 296 299 304 307 311 319 324 330 333 324 345 280 267 294 296 330 359 349 338 263 246 241 230 257 273 240 257 275 309 283 294 237 313 357 12 309 355 305 295 350 44 136 151 162 154
273 273 275 280 283 288 291 291 289 290 294 298 301 305 314 320 329 343 61 79 60 19 293 305 319 320 5 3 300 253 235 224 227 234 226 247 250 210 275 269 185 17 356 345 294 314 314 307 343 157 150 155 159 157
261 263 269 275 281 285 285 284 283 286 290 297 296 301 308 314 319 314 272 270 270 297 308 295 306 308 351 339 10 352 228 215 225 247 219 234 245 208 250 228 209 330 329 318 332 320 332 349 175 152 143 144 155 149
253 261 268 274 279 280 281 280 279 282 288 295 297 302 303 311 316 94 49 9 256 261 259 284 274 307 353 324 309 286 240 211 226 233 216 227 244 207 259 255 289 304 312 321 314 328 263 190 152 145 142 150 149 146
255 264 269 273 273 273 275 273 277 271 282 286 296 301 298 165 99 340 304 297 293 229 268 247 280 273 323 317 285 277 240 257 274 256 238 191 202 229 234 265 295 305 306 306 320 298 169 168 158 151 144 150 148 146
261 267 264 264 265 267 266 267 257 264 272 282 292 265 216 136 305 316 273 232 222 208 228 251 258 270 315 326 296 301 251 260 261 224 190 222 256 254 272 277 293 296 295 292 274 172 167 158 162 158 154 159 157 156
266 264 263 261 259 257 254 243 233 261 241 260 250 242 210 265 287 214 228 201 192 223 219 240 235 247 262 195 245 235 254 240 268 260 201 243 263 230 304 309 311 308 297 272 201 196 171 158 144 150 158 160 158 159
255 258 258 258 250 239 239 213 223 243 213 209 272 286 300 211 215 227 218 167 210 227 205 211 258 238 263 225 224 243 247 207 246 149 220 262 266 106 57 17 347 353 122 142 160 155 150 145 147 143 152 156 155 153
257 254 250 248 241 220 210 206 219 237 227 255 243 271 233 215 127 208 203 234 213 204 200 234 282 252 254 235 257 235 260 235 120 224 236 237 149 131 107 104 104 108 119 131 133 139 142 139 145 147 140 140 144 142
267 260 249 243 217 198 195 202 220 236 181 189 198 250 181 217 239 204 191 212 271 242 298 301 277 247 268 258 227 252 244 94 266 250 243 193 160 140 125 123 123 112 115 121 127 133 132 137 134 134 131 130 133 131
255 262 254 220 192 186 190 210 222 215 198 203 202 237 219 226 249 230 276 290 295 301 305 296 281 250 278 276 235 297 254 251 248 306 292 165 160 152 143 140 133 133 133 125 125 125 128 131 134 140 153 157 154 147
252 256 234 188 177 199 189 215 207 187 232 223 225 246 247 269 258 244 216 304 317 302 321 251 274 293 254 238 246 264 312 321 317 324 312 158 160 161 158 157 153 147 146 146 148 151 150 152 148 139 138 142 141 143
224 218 184 183 189 191 181 187 172 217 230 229 242 232 251 274 262 271 279 268 300 291 217 191 249 221 311 246 241 336 297 271 289 315 178 168 164 159 133 129 135 139 140 143 148 147 142 142 139 139 139 140 144 151
209 195 190 193 173 172 187 179 216 239 246 242 235 246 239 243 249 256 270 274 277 227 187 215 282 242 232 304 294 243 262 298 287 238 166 149 150 154 155 154 160 154 152 154 153 152 153 152 154 157 155 153 149 145
188 186 188 202 181 164 172 197 218 258 243 249 262 265 265 267 267 263 266 264 270 265 199 192 237 214 206 234 244 283 288 277 236 192 185 174 175 179 176 167 164 163 163 162 162 161 162 161 160 161 157 157 150 148
188 195 201 189 189 183 201 212 209 253 266 254 253 259 249 258 269 265 265 263 260 218 180 209 223 217 211 264 311 299 303 297 228 179 180 191 183 177 172 163 157 160 164 166 173 174 172 169 165 163 159 160 154 151
195 187 193 199 177 194 258 242 229 243 268 261 273 272 264 261 254 250 247 244 225 201 216 225 237 247 262 286 310 307 290 277 218 198 188 184 188 171 175 170 171 174 169 165 162 161 161 161 160 163 165 159 147 142
181 186 165 177 165 200 253 234 236 284 256 263 280 256 249 256 245 232 224 202 219 229 232 236 246 254 266 278 292 300 286 273 204 206 190 186 162 166 172 171 182 176 173 169 166 166 168 165 166 164 158 148 145 139
179 176 155 170 182 206 255 223 224 225 240 256 262 251 237 238 224 200 232 227 230 232 239 247 249 252 260 270 275 277 280 258 211 198 190 178 176 176 178 173 175 183 176 174 166 163 160 160 160 155 155 153 150 146
166 151 165 183 196 240 237 221 218 234 229 237 253 262 251 227 185 194 242 251 209 215 231 240 243 245 246 246 247 249 251 195 200 192 189 185 184 186 185 179 173 189 177 167 168 166 162 161 164 168 173 175 172 167
138 179 184 197 201 222 237 227 197 216 231 212 226 259 250 183 191 236 225 243 190 206 255 251 237 232 233 235 217 224 231 208 196 188 194 201 197 189 183 178 173 177 186 186 178 179 183 178 181 186 192 198 196 192
177 197 185 193 188 207 216 240 203 205 206 208 235 241 172 163 219 235 230 132 226 236 255 290 150 164 181 201 208 224 233 214 195 191 193 200 203 193 187 178 181 184 192 199 193 189 193 193 193 199 203 206 210 209
192 214 209 210 208 213 242 264 242 231 207 221 229 188 159 210 239 70 34 293 282 275 263 270 275 228 211 207 216 218 226 222 214 210 203 195 193 203 198 174 175 172 179 199 202 201 197 195 199 203 202 201 202 201
218 231 202 204 207 224 227 259 268 232 203 344 319 311 215 231 218 277 321 314 319 301 269 259 242 231 220 227 218 207 207 208 204 204 196 189 178 190 184 175 171 175 197 196 197 202 203 200 199 201 204 200 199 199
222 213 216 237 206 214 210 216 225 256 168 164 153 269 241 209 241 300 305 320 314 290 272 281 216 210 220 224 206 202 200 195 187 181 184 185 191 193 187 186 192 192 200 202 208 212 209 207 206 207 209 212 212 211
225 205 209 197 200 238 229 228 261 193 169 138 252 225 226 220 250 287 325 322 311 266 259 219 212 222 223 211 189 192 184 189 199 203 190 191 188 181 191 192 193 208 210 213 209 213 211 209 213 217 219 220 223 221
192 199 208 228 252 229 243 265 232 212 205 244 238 240 226 218 243 275 330 333 303 260 250 234 242 225 228 191 175 173 179 185 195 190 189 187 187 185 196 205 196 196 206 210 210 212 211 213 217 222 227 232 228 225
195 209 193 204 228 238 224 223 220 224 222 212 211 176 183 205 247 243 286 324 122 102 135 222 232 222 205 194 200 187 180 172 183 191 203 213 205 197 202 205 201 206 214 217 214 216 214 215 213 217 220 228 229 228
203 204 191 120 262 221 208 199 234 251 200 209 214 200 200 206 241 217 224 17 165 112 118 41 165 195 185 182 193 192 179 178 185 191 193 194 196 199 206 201 204 203 200 204 209 215 211 212 211 214 224 225 225 225